| time (UTC) | temp F | wind direction | speed MPH | gust MPH | rain 1hr in | rain 24hr in | rain mn in | humidity % | barometer mb |
| 20260510124559 | 51 | 294 | 2.0 | 4.0 | 0.00 | 0.00 | 0.00 | 62 | 1020.1 |
| 20260510124056 | 50 | 89 | 0.0 | 3.0 | 0.00 | 0.00 | 0.00 | 66 | 1020.0 |
| 20260510123551 | 50 | 59 | 1.0 | 3.0 | 0.00 | 0.00 | 0.00 | 67 | 1019.9 |
| 20260510123047 | 50 | 345 | 2.0 | 4.0 | 0.00 | 0.00 | 0.00 | 68 | 1019.9 |
| 20260510122543 | 49 | 37 | 3.0 | 4.0 | 0.00 | 0.00 | 0.00 | 72 | 1019.9 |
| 20260510122039 | 49 | 5 | 2.0 | 4.0 | 0.00 | 0.00 | 0.00 | 70 | 1019.8 |
| 20260510121537 | 49 | 91 | 0.0 | 2.0 | 0.00 | 0.00 | 0.00 | 74 | 1019.9 |
| 20260510121034 | 48 | 98 | 0.0 | 3.0 | 0.00 | 0.00 | 0.00 | 74 | 1019.9 |
| 20260510120532 | 47 | 93 | 1.0 | 2.0 | 0.00 | 0.00 | 0.00 | 80 | 1019.6 |
| 20260510120027 | 46 | 93 | 1.0 | 2.0 | 0.00 | 0.00 | 0.00 | 86 | 1019.7 |
| 20260510115524 | 44 | 93 | 0.0 | 2.0 | 0.00 | 0.00 | 0.00 | 87 | 1019.7 |
| 20260510115021 | 43 | 166 | 0.0 | 2.0 | 0.00 | 0.00 | 0.00 | 91 | 1019.7 |
| 20260510114517 | 43 | 40 | 0.0 | 2.0 | 0.00 | 0.00 | 0.00 | 95 | 1019.7 |
| 20260510114013 | 42 | 98 | 0.0 | 2.0 | 0.00 | 0.00 | 0.00 | 97 | 1019.3 |
| 20260510113508 | 39 | 96 | 1.0 | 3.0 | 0.00 | 0.00 | 0.00 | 97 | 1019.5 |
| 20260510113006 | 38 | 111 | 1.0 | 3.0 | 0.00 | 0.00 | 0.00 | 98 | 1019.4 |
| 20260510112503 | 37 | 111 | 2.0 | 3.0 | 0.00 | 0.00 | 0.00 | 98 | 1019.3 |
| 20260510111959 | 35 | 115 | 1.0 | 3.0 | 0.00 | 0.00 | 0.00 | 98 | 1019.1 |
| 20260510111455 | 35 | 92 | 2.0 | 3.0 | 0.00 | 0.00 | 0.00 | 98 | 1018.7 |
| 20260510110951 | 35 | 110 | 1.0 | 3.0 | 0.00 | 0.00 | 0.00 | 98 | 1018.7 |
| 20260510110448 | 34 | 111 | 2.0 | 3.0 | 0.00 | 0.00 | 0.00 | 98 | 1018.9 |
| 20260510105944 | 34 | 103 | 2.0 | 3.0 | 0.00 | 0.00 | 0.00 | 98 | 1018.8 |
| 20260510105439 | 34 | 93 | 1.0 | 3.0 | 0.00 | 0.00 | 0.00 | 98 | 1018.8 |
| 20260510104934 | 34 | 116 | 0.0 | 3.0 | 0.00 | 0.00 | 0.00 | 98 | 1018.7 |
| 20260510104432 | 34 | 88 | 1.0 | 3.0 | 0.00 | 0.00 | 0.00 | 97 | 1018.7 |
| 20260510103928 | 34 | 115 | 1.0 | 3.0 | 0.00 | 0.00 | 0.00 | 97 | 1018.6 |
| 20260510103426 | 35 | 127 | 1.0 | 3.0 | 0.00 | 0.00 | 0.00 | 98 | 1018.5 |
| 20260510102920 | 35 | 75 | 2.0 | 2.0 | 0.00 | 0.00 | 0.00 | 97 | 1018.6 |
| 20260510102416 | 35 | 89 | 0.0 | 2.0 | 0.00 | 0.00 | 0.00 | 97 | 1018.3 |
| 20260510101914 | 35 | 126 | 0.0 | 2.0 | 0.00 | 0.00 | 0.00 | 97 | 1018.4 |
| 20260510101412 | 35 | 98 | 1.0 | 3.0 | 0.00 | 0.00 | 0.00 | 96 | 1018.4 |
| 20260510100909 | 35 | 86 | 1.0 | 3.0 | 0.00 | 0.00 | 0.00 | 96 | 1018.3 |
| 20260510100406 | 35 | 94 | 0.0 | 3.0 | 0.00 | 0.00 | 0.00 | 96 | 1018.1 |
| 20260510095902 | 35 | 109 | 1.0 | 3.0 | 0.00 | 0.00 | 0.00 | 96 | 1018.1 |
| 20260510095357 | 35 | 22 | 2.0 | 2.0 | 0.00 | 0.00 | 0.00 | 96 | 1018.3 |
| 20260510094856 | 35 | 43 | 2.0 | 2.0 | 0.00 | 0.00 | 0.00 | 95 | 1018.2 |
| 20260510094352 | 35 | 83 | 1.0 | 2.0 | 0.00 | 0.00 | 0.00 | 94 | 1018.3 |
| 20260510093848 | 35 | 105 | 2.0 | 2.0 | 0.00 | 0.00 | 0.00 | 94 | 1018.3 |
| 20260510093344 | 35 | 124 | 2.0 | 3.0 | 0.00 | 0.00 | 0.00 | 94 | 1018.2 |
| 20260510092840 | 35 | 104 | 2.0 | 2.0 | 0.00 | 0.00 | 0.00 | 94 | 1018.1 |
| 20260510092337 | 35 | 108 | 1.0 | 3.0 | 0.00 | 0.00 | 0.00 | 94 | 1018.0 |
| 20260510091832 | 35 | 111 | 1.0 | 2.0 | 0.00 | 0.00 | 0.00 | 93 | 1017.9 |
| 20260510091330 | 35 | 88 | 2.0 | 2.0 | 0.00 | 0.00 | 0.00 | 93 | 1017.8 |
| 20260510090826 | 35 | 80 | 0.0 | 2.0 | 0.00 | 0.00 | 0.00 | 92 | 1017.8 |
| 20260510090323 | 35 | 100 | 2.0 | 2.0 | 0.00 | 0.00 | 0.00 | 92 | 1017.8 |
| 20260510085819 | 36 | 92 | 1.0 | 2.0 | 0.00 | 0.00 | 0.00 | 92 | 1017.6 |
| 20260510085318 | 36 | 73 | 0.0 | 2.0 | 0.00 | 0.00 | 0.00 | 91 | 1017.8 |
| 20260510084814 | 37 | 106 | 1.0 | 2.0 | 0.00 | 0.00 | 0.00 | 91 | 1017.6 |
| 20260510084312 | 36 | 117 | 2.0 | 2.0 | 0.00 | 0.00 | 0.00 | 91 | 1017.6 |
| 20260510083808 | 36 | 106 | 2.0 | 3.0 | 0.00 | 0.00 | 0.00 | 91 | 1017.5 |
| 20260510083306 | 36 | 99 | 1.0 | 2.0 | 0.00 | 0.00 | 0.00 | 90 | 1017.5 |
| 20260510082801 | 37 | 99 | 0.0 | 2.0 | 0.00 | 0.00 | 0.00 | 89 | 1017.4 |
| 20260510082258 | 37 | 94 | 2.0 | 2.0 | 0.00 | 0.00 | 0.00 | 89 | 1017.3 |
| 20260510081756 | 38 | 106 | 2.0 | 2.0 | 0.00 | 0.00 | 0.00 | 89 | 1017.2 |
| 20260510081253 | 37 | 153 | 0.0 | 2.0 | 0.00 | 0.00 | 0.00 | 90 | 1017.2 |
| 20260510080749 | 37 | 98 | 2.0 | 3.0 | 0.00 | 0.00 | 0.00 | 90 | 1017.0 |
| 20260510080244 | 37 | 111 | 1.0 | 2.0 | 0.00 | 0.00 | 0.00 | 89 | 1016.9 |
| 20260510075741 | 38 | 109 | 1.0 | 2.0 | 0.00 | 0.00 | 0.00 | 89 | 1017.0 |
| 20260510075239 | 38 | 97 | 1.0 | 3.0 | 0.00 | 0.00 | 0.00 | 88 | 1016.8 |
| 20260510074736 | 39 | 105 | 1.0 | 2.0 | 0.00 | 0.00 | 0.00 | 86 | 1016.8 |
| 20260510074232 | 40 | 79 | 1.0 | 2.0 | 0.00 | 0.00 | 0.00 | 86 | 1016.7 |
| 20260510073728 | 39 | 106 | 0.0 | 2.0 | 0.00 | 0.00 | 0.00 | 84 | 1016.6 |
| 20260510073224 | 40 | 100 | 1.0 | 2.0 | 0.00 | 0.00 | 0.00 | 82 | 1016.4 |
| 20260510072720 | 41 | 98 | 1.0 | 2.0 | 0.00 | 0.00 | 0.00 | 80 | 1016.8 |
| 20260510072217 | 41 | 105 | 2.0 | 3.0 | 0.00 | 0.00 | 0.00 | 79 | 1016.8 |
| 20260510071714 | 42 | 108 | 2.0 | 3.0 | 0.00 | 0.00 | 0.00 | 77 | 1016.4 |
| 20260510071210 | 42 | 107 | 2.0 | 3.0 | 0.00 | 0.00 | 0.00 | 76 | 1016.3 |
| 20260510070708 | 43 | 81 | 0.0 | 3.0 | 0.00 | 0.00 | 0.00 | 74 | 1016.4 |
| 20260510070205 | 44 | 10 | 2.0 | 5.0 | 0.00 | 0.00 | 0.00 | 73 | 1016.2 |
| 20260510065700 | 44 | 23 | 1.0 | 4.0 | 0.00 | 0.00 | 0.00 | 73 | 1015.9 |
| 20260510065157 | 44 | 70 | 2.0 | 3.0 | 0.00 | 0.00 | 0.00 | 72 | 1015.8 |
| 20260510064653 | 44 | 43 | 1.0 | 4.0 | 0.00 | 0.00 | 0.00 | 72 | 1015.9 |
| 20260510064150 | 44 | 29 | 3.0 | 6.0 | 0.00 | 0.00 | 0.00 | 72 | 1016.0 |
| 20260510063648 | 45 | 50 | 2.0 | 7.0 | 0.00 | 0.00 | 0.00 | 71 | 1016.3 |
| 20260510063144 | 45 | 129 | 3.0 | 7.0 | 0.00 | 0.00 | 0.00 | 71 | 1016.3 |
| 20260510062640 | 45 | 16 | 3.0 | 8.0 | 0.00 | 0.00 | 0.00 | 70 | 1016.1 |
| 20260510062136 | 45 | 13 | 3.0 | 6.0 | 0.00 | 0.00 | 0.00 | 70 | 1015.9 |
| 20260510061631 | 45 | 19 | 1.0 | 7.0 | 0.00 | 0.00 | 0.00 | 69 | 1015.9 |
| 20260510061129 | 45 | 53 | 2.0 | 8.0 | 0.00 | 0.00 | 0.00 | 69 | 1015.9 |
| 20260510060625 | 45 | 42 | 2.0 | 5.0 | 0.00 | 0.00 | 0.00 | 70 | 1015.7 |
| 20260510060122 | 45 | 354 | 3.0 | 5.0 | 0.00 | 0.00 | 0.00 | 69 | 1015.6 |
| 20260510055618 | 46 | 89 | 2.0 | 10.0 | 0.00 | 0.00 | 0.00 | 68 | 1015.8 |
| 20260510055116 | 46 | 9 | 3.0 | 6.0 | 0.00 | 0.00 | 0.00 | 68 | 1015.6 |
| 20260510054612 | 46 | 22 | 6.0 | 9.0 | 0.00 | 0.00 | 0.00 | 67 | 1015.5 |
| 20260510054107 | 46 | 59 | 2.0 | 8.0 | 0.00 | 0.00 | 0.00 | 66 | 1015.4 |
| 20260510053606 | 47 | 55 | 0.0 | 5.0 | 0.00 | 0.00 | 0.00 | 66 | 1015.2 |
| 20260510053104 | 47 | 355 | 2.0 | 8.0 | 0.00 | 0.00 | 0.00 | 65 | 1015.3 |
| 20260510052559 | 47 | 3 | 3.0 | 7.0 | 0.00 | 0.00 | 0.00 | 64 | 1015.1 |
| 20260510052056 | 48 | 6 | 6.0 | 11.0 | 0.00 | 0.00 | 0.00 | 63 | 1015.0 |
| 20260510051551 | 48 | 27 | 4.0 | 6.0 | 0.00 | 0.00 | 0.00 | 63 | 1014.8 |
| 20260510051049 | 49 | 20 | 3.0 | 7.0 | 0.00 | 0.00 | 0.00 | 63 | 1014.8 |
| 20260510050546 | 49 | 37 | 3.0 | 9.0 | 0.00 | 0.00 | 0.00 | 63 | 1014.5 |
| 20260510050043 | 44 | 227 | 0.0 | 3.0 | 0.00 | 0.00 | 0.00 | 82 | 1014.4 |
| 20260510045540 | 42 | 54 | 2.0 | 2.0 | 0.00 | 0.00 | 0.00 | 87 | 1013.9 |
| 20260510045036 | 42 | 101 | 0.0 | 2.0 | 0.00 | 0.00 | 0.00 | 85 | 1014.0 |
| 20260510044533 | 42 | 101 | 1.0 | 2.0 | 0.00 | 0.00 | 0.00 | 84 | 1013.9 |
| 20260510044031 | 43 | 103 | 1.0 | 2.0 | 0.00 | 0.00 | 0.00 | 83 | 1013.6 |
| 20260510043526 | 43 | 109 | 2.0 | 2.0 | 0.00 | 0.00 | 0.00 | 82 | 1013.6 |
| 20260510043021 | 44 | 105 | 1.0 | 2.0 | 0.00 | 0.00 | 0.00 | 82 | 1013.7 |
| 20260510042515 | 44 | 127 | 2.0 | 2.0 | 0.00 | 0.00 | 0.00 | 82 | 1013.6 |
| 20260510042010 | 44 | 101 | 1.0 | 2.0 | 0.00 | 0.00 | 0.00 | 81 | 1013.8 |
| 20260510041509 | 44 | 114 | 2.0 | 2.0 | 0.00 | 0.00 | 0.00 | 81 | 1013.5 |
| 20260510041006 | 44 | 71 | 1.0 | 2.0 | 0.00 | 0.00 | 0.00 | 79 | 1013.6 |
| 20260510040502 | 45 | 105 | 2.0 | 3.0 | 0.00 | 0.00 | 0.00 | 79 | 1013.4 |
| 20260510035957 | 45 | 107 | 2.0 | 3.0 | 0.00 | 0.00 | 0.00 | 79 | 1013.6 |
| 20260510035455 | 45 | 89 | 0.0 | 3.0 | 0.00 | 0.00 | 0.00 | 78 | 1013.2 |
| 20260510034954 | 46 | 112 | 2.0 | 3.0 | 0.00 | 0.00 | 0.00 | 77 | 1013.2 |
| 20260510034453 | 46 | 113 | 2.0 | 3.0 | 0.00 | 0.00 | 0.00 | 76 | 1013.4 |
| 20260510033949 | 45 | 123 | 2.0 | 3.0 | 0.00 | 0.00 | 0.00 | 79 | 1013.2 |
| 20260510033445 | 45 | 87 | 2.0 | 3.0 | 0.00 | 0.00 | 0.00 | 78 | 1013.1 |
| 20260510032942 | 46 | 93 | 1.0 | 2.0 | 0.00 | 0.00 | 0.00 | 78 | 1013.0 |
| 20260510032439 | 46 | 121 | 1.0 | 2.0 | 0.00 | 0.00 | 0.00 | 77 | 1013.1 |
| 20260510031939 | 46 | 102 | 0.0 | 2.0 | 0.00 | 0.00 | 0.00 | 75 | 1013.0 |
| 20260510031435 | 46 | 114 | 0.0 | 2.0 | 0.00 | 0.00 | 0.00 | 75 | 1012.8 |
| 20260510030931 | 46 | 73 | 1.0 | 2.0 | 0.00 | 0.00 | 0.00 | 74 | 1012.9 |
| 20260510030426 | 46 | 92 | 0.0 | 2.0 | 0.00 | 0.00 | 0.00 | 72 | 1012.7 |
| 20260510025924 | 47 | 112 | 1.0 | 2.0 | 0.00 | 0.00 | 0.00 | 71 | 1012.5 |
| 20260510025421 | 47 | 113 | 2.0 | 3.0 | 0.00 | 0.00 | 0.00 | 70 | 1012.5 |
| 20260510024919 | 48 | 101 | 2.0 | 3.0 | 0.00 | 0.00 | 0.00 | 70 | 1012.4 |
| 20260510024415 | 48 | 107 | 2.0 | 3.0 | 0.00 | 0.00 | 0.00 | 70 | 1012.4 |
| 20260510023911 | 48 | 71 | 0.0 | 2.0 | 0.00 | 0.00 | 0.00 | 71 | 1012.0 |
| 20260510023407 | 49 | 104 | 1.0 | 2.0 | 0.00 | 0.00 | 0.00 | 70 | 1012.0 |
| 20260510022905 | 49 | 113 | 1.0 | 3.0 | 0.00 | 0.00 | 0.00 | 69 | 1011.9 |
| 20260510022404 | 50 | 83 | 1.0 | 2.0 | 0.00 | 0.00 | 0.00 | 67 | 1011.9 |
| 20260510021903 | 51 | 106 | 1.0 | 3.0 | 0.00 | 0.00 | 0.00 | 65 | 1011.9 |
| 20260510021401 | 51 | 97 | 0.0 | 2.0 | 0.00 | 0.00 | 0.00 | 64 | 1011.6 |
| 20260510020857 | 51 | 79 | 2.0 | 4.0 | 0.00 | 0.00 | 0.00 | 63 | 1011.6 |
| 20260510020352 | 51 | 25 | 1.0 | 3.0 | 0.00 | 0.00 | 0.00 | 62 | 1011.5 |
| 20260510015848 | 51 | 75 | 1.0 | 2.0 | 0.00 | 0.00 | 0.00 | 63 | 1011.4 |
| 20260510015344 | 52 | 74 | 1.0 | 3.0 | 0.00 | 0.00 | 0.00 | 62 | 1011.5 |
| 20260510014839 | 52 | 97 | 0.0 | 3.0 | 0.00 | 0.00 | 0.00 | 60 | 1011.2 |
| 20260510014337 | 53 | 86 | 3.0 | 3.0 | 0.00 | 0.00 | 0.00 | 60 | 1011.2 |
| 20260510013833 | 53 | 56 | 1.0 | 3.0 | 0.00 | 0.00 | 0.00 | 59 | 1011.2 |
| 20260510013329 | 54 | 96 | 1.0 | 3.0 | 0.00 | 0.00 | 0.00 | 58 | 1010.8 |
| 20260510012824 | 55 | 80 | 3.0 | 5.0 | 0.00 | 0.00 | 0.00 | 56 | 1010.9 |
| 20260510012324 | 55 | 76 | 3.0 | 4.0 | 0.00 | 0.00 | 0.00 | 55 | 1010.6 |
| 20260510011819 | 55 | 73 | 1.0 | 4.0 | 0.00 | 0.00 | 0.00 | 54 | 1010.6 |
| 20260510011314 | 56 | 117 | 2.0 | 5.0 | 0.00 | 0.00 | 0.00 | 54 | 1010.4 |
| 20260510010811 | 57 | 73 | 1.0 | 5.0 | 0.00 | 0.00 | 0.00 | 52 | 1010.5 |
| 20260510010308 | 58 | 305 | 1.0 | 3.0 | 0.00 | 0.00 | 0.00 | 50 | 1010.2 |
| 20260510005805 | 60 | 129 | 3.0 | 4.0 | 0.00 | 0.00 | 0.00 | 48 | 1010.1 |
| 20260510005301 | 61 | 342 | 2.0 | 6.0 | 0.00 | 0.00 | 0.00 | 46 | 1010.2 |
| 20260510004759 | 62 | 269 | 2.0 | 7.0 | 0.00 | 0.00 | 0.00 | 45 | 1009.7 |
| 20260510004256 | 62 | 352 | 7.0 | 10.0 | 0.00 | 0.00 | 0.00 | 44 | 1009.7 |
| 20260510003754 | 62 | 345 | 2.0 | 13.0 | 0.00 | 0.00 | 0.00 | 43 | 1009.7 |
| 20260510003250 | 63 | 347 | 5.0 | 9.0 | 0.00 | 0.00 | 0.00 | 43 | 1009.7 |
| 20260510002749 | 64 | 267 | 2.0 | 10.0 | 0.00 | 0.00 | 0.00 | 42 | 1009.3 |
| 20260510002247 | 64 | 259 | 5.0 | 10.0 | 0.00 | 0.00 | 0.00 | 42 | 1009.3 |
| 20260510001743 | 64 | 312 | 7.0 | 13.0 | 0.00 | 0.00 | 0.00 | 41 | 1009.4 |
| 20260510001242 | 65 | 234 | 3.0 | 12.0 | 0.00 | 0.00 | 0.00 | 41 | 1009.0 |
| 20260510000737 | 65 | 258 | 7.0 | 9.0 | 0.00 | 0.00 | 0.00 | 41 | 1009.0 |
| 20260510000235 | 65 | 273 | 0.0 | 9.0 | 0.00 | 0.00 | 0.00 | 42 | 1008.6 |
| 20260509235731 | 66 | 316 | 4.0 | 16.0 | 0.00 | 0.00 | 0.00 | 40 | 1008.7 |
| 20260509235228 | 67 | 260 | 4.0 | 9.0 | 0.00 | 0.00 | 0.00 | 41 | 1008.5 |
| 20260509234724 | 67 | 353 | 4.0 | 9.0 | 0.00 | 0.00 | 0.00 | 41 | 1008.4 |
| 20260509234221 | 67 | 338 | 4.0 | 8.0 | 0.00 | 0.00 | 0.00 | 41 | 1008.3 |
| 20260509233719 | 67 | 327 | 1.0 | 9.0 | 0.00 | 0.00 | 0.00 | 41 | 1008.4 |
| 20260509233216 | 68 | 289 | 2.0 | 12.0 | 0.00 | 0.00 | 0.00 | 41 | 1008.3 |
| 20260509232713 | 68 | 333 | 10.0 | 17.0 | 0.00 | 0.00 | 0.00 | 41 | 1008.3 |
| 20260509232210 | 68 | 344 | 2.0 | 11.0 | 0.00 | 0.00 | 0.00 | 40 | 1008.1 |
| 20260509231706 | 68 | 258 | 3.0 | 16.0 | 0.00 | 0.00 | 0.00 | 40 | 1008.0 |
| 20260509231204 | 69 | 340 | 3.0 | 11.0 | 0.00 | 0.00 | 0.00 | 40 | 1007.9 |
| 20260509230701 | 68 | 283 | 3.0 | 9.0 | 0.00 | 0.00 | 0.00 | 41 | 1008.0 |
| 20260509230157 | 67 | 298 | 2.0 | 14.0 | 0.00 | 0.00 | 0.00 | 43 | 1007.9 |
| 20260509225653 | 67 | 304 | 4.0 | 10.0 | 0.00 | 0.00 | 0.00 | 42 | 1007.9 |
| 20260509225149 | 68 | 320 | 3.0 | 11.0 | 0.00 | 0.00 | 0.00 | 43 | 1007.8 |
| 20260509224644 | 69 | 288 | 3.0 | 10.0 | 0.00 | 0.00 | 0.00 | 40 | 1007.4 |
| 20260509224142 | 69 | 331 | 3.0 | 13.0 | 0.00 | 0.00 | 0.00 | 40 | 1007.3 |
| 20260509223638 | 70 | 275 | 0.0 | 10.0 | 0.00 | 0.00 | 0.00 | 42 | 1007.5 |
| 20260509223136 | 69 | 279 | 5.0 | 11.0 | 0.00 | 0.00 | 0.00 | 41 | 1007.5 |
| 20260509222633 | 69 | 274 | 11.0 | 18.0 | 0.00 | 0.00 | 0.00 | 39 | 1007.4 |
| 20260509222128 | 69 | 227 | 4.0 | 9.0 | 0.00 | 0.00 | 0.00 | 39 | 1007.0 |
| 20260509221624 | 71 | 282 | 3.0 | 12.0 | 0.00 | 0.00 | 0.00 | 38 | 1006.9 |
| 20260509221120 | 71 | 234 | 4.0 | 13.0 | 0.00 | 0.00 | 0.00 | 37 | 1007.0 |
| 20260509220616 | 70 | 262 | 6.0 | 10.0 | 0.00 | 0.00 | 0.00 | 42 | 1007.0 |
| 20260509220113 | 70 | 222 | 11.0 | 13.0 | 0.00 | 0.00 | 0.00 | 39 | 1006.9 |
| 20260509215608 | 71 | 296 | 10.0 | 19.0 | 0.00 | 0.00 | 0.00 | 36 | 1006.7 |
| 20260509215106 | 71 | 269 | 5.0 | 19.0 | 0.00 | 0.00 | 0.00 | 37 | 1006.6 |
| 20260509214602 | 72 | 323 | 7.0 | 22.0 | 0.00 | 0.00 | 0.00 | 36 | 1006.5 |
| 20260509214059 | 71 | 238 | 6.0 | 20.0 | 0.00 | 0.00 | 0.00 | 34 | 1006.5 |
| 20260509213555 | 71 | 276 | 11.0 | 26.0 | 0.00 | 0.00 | 0.00 | 34 | 1006.8 |
| 20260509213052 | 71 | 235 | 9.0 | 20.0 | 0.00 | 0.00 | 0.00 | 34 | 1006.4 |
| 20260509212549 | 71 | 238 | 11.0 | 20.0 | 0.00 | 0.00 | 0.00 | 36 | 1006.3 |
| 20260509212046 | 71 | 254 | 9.0 | 26.0 | 0.00 | 0.00 | 0.00 | 35 | 1006.2 |
| 20260509211542 | 70 | 239 | 16.0 | 23.0 | 0.00 | 0.00 | 0.00 | 35 | 1006.3 |
| 20260509211038 | 71 | 256 | 14.0 | 20.0 | 0.00 | 0.00 | 0.00 | 34 | 1006.3 |
| 20260509210535 | 71 | 271 | 10.0 | 21.0 | 0.00 | 0.00 | 0.00 | 35 | 1006.0 |
| 20260509210032 | 71 | 276 | 5.0 | 19.0 | 0.00 | 0.00 | 0.00 | 36 | 1006.1 |
| 20260509205526 | 72 | 238 | 6.0 | 16.0 | 0.00 | 0.00 | 0.00 | 35 | 1005.9 |
| 20260509205022 | 71 | 214 | 5.0 | 22.0 | 0.00 | 0.00 | 0.00 | 35 | 1005.7 |
| 20260509204518 | 72 | 234 | 4.0 | 26.0 | 0.00 | 0.00 | 0.00 | 36 | 1005.7 |
| 20260509204015 | 72 | 276 | 5.0 | 23.0 | 0.00 | 0.00 | 0.00 | 34 | 1005.7 |
| 20260509203510 | 72 | 183 | 4.0 | 17.0 | 0.00 | 0.00 | 0.00 | 36 | 1005.8 |
| 20260509203009 | 73 | 247 | 7.0 | 20.0 | 0.00 | 0.00 | 0.00 | 36 | 1005.9 |
| 20260509202503 | 72 | 252 | 15.0 | 21.0 | 0.00 | 0.00 | 0.00 | 35 | 1005.9 |
| 20260509201959 | 71 | 236 | 6.0 | 24.0 | 0.00 | 0.00 | 0.00 | 35 | 1005.7 |
| 20260509201454 | 71 | 235 | 14.0 | 20.0 | 0.00 | 0.00 | 0.00 | 36 | 1005.8 |
| 20260509200951 | 71 | 223 | 14.0 | 27.0 | 0.00 | 0.00 | 0.00 | 35 | 1005.8 |
| 20260509200446 | 73 | 236 | 4.0 | 28.0 | 0.00 | 0.00 | 0.00 | 35 | 1005.6 |
| 20260509195943 | 73 | 317 | 5.0 | 17.0 | 0.00 | 0.00 | 0.00 | 34 | 1005.7 |
| 20260509195433 | 72 | 202 | 10.0 | 30.0 | 0.00 | 0.00 | 0.00 | 34 | 1005.5 |
| 20260509194932 | 72 | 239 | 13.0 | 21.0 | 0.00 | 0.00 | 0.00 | 34 | 1005.4 |
| 20260509194428 | 71 | 197 | 17.0 | 24.0 | 0.00 | 0.00 | 0.00 | 35 | 1005.5 |
| 20260509193926 | 71 | 205 | 19.0 | 21.0 | 0.00 | 0.00 | 0.00 | 34 | 1005.4 |
| 20260509193425 | 71 | 203 | 14.0 | 26.0 | 0.00 | 0.00 | 0.00 | 34 | 1005.7 |
| 20260509192921 | 72 | 234 | 10.0 | 34.0 | 0.00 | 0.00 | 0.00 | 33 | 1005.7 |
| 20260509192418 | 71 | 212 | 21.0 | 24.0 | 0.00 | 0.00 | 0.00 | 35 | 1005.8 |
| 20260509191913 | 71 | 189 | 13.0 | 22.0 | 0.00 | 0.00 | 0.00 | 37 | 1005.4 |
| 20260509191409 | 70 | 230 | 9.0 | 30.0 | 0.00 | 0.00 | 0.00 | 36 | 1005.4 |
| 20260509190905 | 71 | 196 | 5.0 | 27.0 | 0.00 | 0.00 | 0.00 | 37 | 1005.5 |
| 20260509190402 | 71 | 179 | 7.0 | 21.0 | 0.00 | 0.00 | 0.00 | 36 | 1005.2 |
| 20260509185900 | 71 | 187 | 15.0 | 21.0 | 0.00 | 0.00 | 0.00 | 36 | 1005.2 |
| 20260509185356 | 71 | 174 | 9.0 | 20.0 | 0.00 | 0.00 | 0.00 | 37 | 1005.4 |
| 20260509184853 | 71 | 232 | 9.0 | 13.0 | 0.00 | 0.00 | 0.00 | 38 | 1005.4 |
| 20260509184350 | 69 | 239 | 10.0 | 23.0 | 0.00 | 0.00 | 0.00 | 38 | 1005.5 |
| 20260509183847 | 69 | 179 | 5.0 | 31.0 | 0.00 | 0.00 | 0.00 | 38 | 1005.2 |
| 20260509183342 | 70 | 222 | 14.0 | 22.0 | 0.00 | 0.00 | 0.00 | 36 | 1005.1 |
| 20260509182838 | 70 | 215 | 9.0 | 22.0 | 0.00 | 0.00 | 0.00 | 40 | 1005.4 |
| 20260509182336 | 69 | 228 | 15.0 | 23.0 | 0.00 | 0.00 | 0.00 | 37 | 1005.5 |
| 20260509181833 | 68 | 203 | 5.0 | 23.0 | 0.00 | 0.00 | 0.00 | 39 | 1005.4 |
| 20260509181330 | 68 | 214 | 4.0 | 13.0 | 0.00 | 0.00 | 0.00 | 41 | 1005.4 |
| 20260509180827 | 68 | 219 | 10.0 | 15.0 | 0.00 | 0.00 | 0.00 | 40 | 1005.6 |
| 20260509180323 | 68 | 159 | 10.0 | 24.0 | 0.00 | 0.00 | 0.00 | 41 | 1005.7 |
| 20260509175820 | 67 | 264 | 6.0 | 21.0 | 0.00 | 0.00 | 0.00 | 40 | 1005.6 |
| 20260509175316 | 68 | 205 | 5.0 | 21.0 | 0.00 | 0.00 | 0.00 | 40 | 1005.5 |
| 20260509174812 | 68 | 182 | 10.0 | 21.0 | 0.00 | 0.00 | 0.00 | 40 | 1005.5 |
| 20260509174308 | 68 | 176 | 9.0 | 15.0 | 0.00 | 0.00 | 0.00 | 39 | 1005.7 |
| 20260509173804 | 67 | 177 | 4.0 | 17.0 | 0.00 | 0.00 | 0.00 | 42 | 1005.6 |
| 20260509173300 | 68 | 238 | 9.0 | 13.0 | 0.00 | 0.00 | 0.00 | 40 | 1005.8 |
| 20260509172756 | 67 | 189 | 3.0 | 24.0 | 0.00 | 0.00 | 0.00 | 40 | 1005.6 |
| 20260509172253 | 68 | 182 | 7.0 | 18.0 | 0.00 | 0.00 | 0.00 | 39 | 1005.8 |
| 20260509171748 | 67 | 194 | 6.0 | 21.0 | 0.00 | 0.00 | 0.00 | 40 | 1005.6 |
| 20260509171245 | 66 | 208 | 6.0 | 18.0 | 0.00 | 0.00 | 0.00 | 41 | 1006.0 |
| 20260509170741 | 66 | 226 | 3.0 | 17.0 | 0.00 | 0.00 | 0.00 | 42 | 1006.0 |
| 20260509170237 | 66 | 274 | 12.0 | 12.0 | 0.00 | 0.00 | 0.00 | 41 | 1006.0 |
| 20260509165736 | 65 | 282 | 8.0 | 24.0 | 0.00 | 0.00 | 0.00 | 40 | 1006.2 |
| 20260509165231 | 66 | 258 | 5.0 | 14.0 | 0.00 | 0.00 | 0.00 | 41 | 1006.0 |
| 20260509164727 | 66 | 7 | 3.0 | 20.0 | 0.00 | 0.00 | 0.00 | 40 | 1006.2 |
| 20260509164223 | 66 | 253 | 12.0 | 15.0 | 0.00 | 0.00 | 0.00 | 39 | 1006.3 |
| 20260509163721 | 66 | 265 | 3.0 | 22.0 | 0.00 | 0.00 | 0.00 | 39 | 1006.1 |
| 20260509163217 | 66 | 288 | 11.0 | 20.0 | 0.00 | 0.00 | 0.00 | 40 | 1006.3 |
| 20260509162715 | 67 | 209 | 3.0 | 19.0 | 0.00 | 0.00 | 0.00 | 44 | 1005.9 |
| 20260509162210 | 68 | 274 | 6.0 | 17.0 | 0.00 | 0.00 | 0.00 | 43 | 1005.7 |
| 20260509161706 | 66 | 225 | 8.0 | 20.0 | 0.00 | 0.00 | 0.00 | 45 | 1006.0 |
| 20260509161202 | 66 | 171 | 5.0 | 21.0 | 0.00 | 0.00 | 0.00 | 46 | 1005.9 |
| 20260509160657 | 65 | 218 | 6.0 | 18.0 | 0.00 | 0.00 | 0.00 | 50 | 1005.9 |
| 20260509160154 | 65 | 204 | 6.0 | 18.0 | 0.00 | 0.00 | 0.00 | 50 | 1005.9 |
| 20260509155649 | 65 | 244 | 7.0 | 15.0 | 0.00 | 0.00 | 0.00 | 50 | 1005.8 |
| 20260509155146 | 65 | 206 | 8.0 | 21.0 | 0.00 | 0.00 | 0.00 | 52 | 1006.0 |
| 20260509154641 | 65 | 206 | 5.0 | 13.0 | 0.00 | 0.00 | 0.00 | 55 | 1005.8 |
| 20260509154139 | 64 | 205 | 4.0 | 11.0 | 0.00 | 0.00 | 0.00 | 55 | 1005.7 |
| 20260509153636 | 64 | 187 | 5.0 | 13.0 | 0.00 | 0.00 | 0.00 | 56 | 1005.7 |
| 20260509153133 | 63 | 190 | 4.0 | 12.0 | 0.00 | 0.00 | 0.00 | 58 | 1005.6 |
| 20260509152628 | 63 | 169 | 5.0 | 10.0 | 0.00 | 0.00 | 0.00 | 61 | 1005.5 |
| 20260509152126 | 62 | 148 | 3.0 | 12.0 | 0.00 | 0.00 | 0.00 | 63 | 1005.6 |
| 20260509151622 | 62 | 228 | 8.0 | 14.0 | 0.00 | 0.00 | 0.00 | 63 | 1005.9 |
| 20260509151120 | 63 | 203 | 6.0 | 12.0 | 0.00 | 0.00 | 0.00 | 59 | 1005.7 |
| 20260509150618 | 63 | 203 | 9.0 | 13.0 | 0.00 | 0.00 | 0.00 | 64 | 1005.9 |
| 20260509150116 | 63 | 230 | 6.0 | 24.0 | 0.00 | 0.00 | 0.00 | 60 | 1005.9 |
| 20260509145611 | 63 | 203 | 9.0 | 16.0 | 0.00 | 0.00 | 0.00 | 62 | 1005.5 |
| 20260509145107 | 63 | 202 | 9.0 | 19.0 | 0.00 | 0.00 | 0.00 | 64 | 1005.6 |
| 20260509144604 | 62 | 182 | 4.0 | 15.0 | 0.00 | 0.00 | 0.00 | 65 | 1005.6 |
| 20260509144100 | 61 | 176 | 8.0 | 17.0 | 0.00 | 0.00 | 0.00 | 67 | 1005.3 |
| 20260509143558 | 61 | 207 | 9.0 | 18.0 | 0.00 | 0.00 | 0.00 | 68 | 1005.5 |
| 20260509143055 | 61 | 211 | 13.0 | 17.0 | 0.00 | 0.00 | 0.00 | 68 | 1005.4 |
| 20260509142550 | 61 | 229 | 8.0 | 15.0 | 0.00 | 0.00 | 0.00 | 68 | 1005.5 |
| 20260509142047 | 61 | 196 | 7.0 | 13.0 | 0.00 | 0.00 | 0.00 | 70 | 1005.4 |
| 20260509141543 | 60 | 194 | 6.0 | 11.0 | 0.00 | 0.00 | 0.00 | 69 | 1005.5 |
| 20260509141040 | 60 | 237 | 7.0 | 14.0 | 0.00 | 0.00 | 0.00 | 71 | 1005.4 |
| 20260509140537 | 60 | 205 | 6.0 | 12.0 | 0.00 | 0.00 | 0.00 | 72 | 1005.3 |
| 20260509140035 | 59 | 212 | 8.0 | 16.0 | 0.00 | 0.00 | 0.00 | 71 | 1005.5 |
| 20260509135531 | 60 | 161 | 2.0 | 15.0 | 0.00 | 0.00 | 0.00 | 73 | 1005.4 |
| 20260509135029 | 60 | 246 | 5.0 | 15.0 | 0.00 | 0.00 | 0.00 | 74 | 1005.3 |
| 20260509134526 | 59 | 167 | 6.0 | 13.0 | 0.00 | 0.00 | 0.00 | 75 | 1005.2 |
| 20260509134024 | 59 | 212 | 7.0 | 13.0 | 0.00 | 0.00 | 0.00 | 76 | 1005.1 |
| 20260509133520 | 59 | 185 | 11.0 | 12.0 | 0.00 | 0.00 | 0.00 | 77 | 1005.3 |
| 20260509133018 | 58 | 206 | 7.0 | 15.0 | 0.00 | 0.00 | 0.00 | 77 | 1005.2 |
| 20260509132516 | 58 | 195 | 5.0 | 11.0 | 0.00 | 0.00 | 0.00 | 78 | 1005.0 |
| 20260509132014 | 58 | 186 | 9.0 | 15.0 | 0.00 | 0.00 | 0.00 | 79 | 1005.0 |
| 20260509131510 | 58 | 198 | 9.0 | 14.0 | 0.00 | 0.00 | 0.00 | 80 | 1005.2 |
| 20260509131007 | 57 | 203 | 3.0 | 12.0 | 0.00 | 0.00 | 0.00 | 81 | 1005.1 |
| 20260509130502 | 57 | 184 | 7.0 | 18.0 | 0.00 | 0.00 | 0.00 | 82 | 1005.1 |
| 20260509125959 | 57 | 185 | 5.0 | 22.0 | 0.00 | 0.00 | 0.00 | 83 | 1005.3 |
| 20260509125456 | 56 | 194 | 7.0 | 15.0 | 0.00 | 0.00 | 0.00 | 83 | 1005.5 |
| 20260509124951 | 56 | 229 | 8.0 | 15.0 | 0.00 | 0.00 | 0.00 | 84 | 1005.6 |